This is the latest recevied weather packets stored in our database for station/object W4CKA. If no packets are shown the sender has not sent any weather packets the latest 10 day(s).
| Time | Temp. | Humidity | Pressure | Rain* | Wind** | Luminosity | Snow |
|---|---|---|---|---|---|---|---|
| 1777807815 | 1.67° C | 97% | 1062.8 hPa | 0 mm | - | 24 W/m² | - |
| 1777807215 | 1.67° C | 97% | 1062.6 hPa | 0 mm | - | 18 W/m² | - |
| 1777806614 | 1.67° C | 97% | 1062.6 hPa | 0 mm | - | 15 W/m² | - |
| 1777806013 | 1.67° C | 97% | 1062.4 hPa | 0 mm | - | 11 W/m² | - |
| 1777805413 | 1.67° C | 97% | 1062.2 hPa | 0 mm | - | 5 W/m² | - |
| 1777804809 | 1.67° C | 97% | 1062 hPa | 0 mm | - | 1 W/m² | - |
| 1777804209 | 1.67° C | 97% | 1062 hPa | 0 mm | - | 0 W/m² | - |
| 1777803608 | 1.11° C | 96% | 1061.8 hPa | 0 mm | - | 0 W/m² | - |
| 1777803008 | 1.11° C | 96% | 1061.7 hPa | 0 mm | - | 0 W/m² | - |
| 1777802403 | 1.11° C | 96% | 1061.6 hPa | 0 mm | - | 0 W/m² | - |
| 1777801798 | 2.22° C | 96% | 1061.8 hPa | 0 mm | - | 0 W/m² | - |
| 1777801197 | 2.78° C | 96% | 1061.5 hPa | 0 mm | - | 0 W/m² | - |
| 1777800596 | 2.78° C | 96% | 1061.4 hPa | 0 mm | - | 0 W/m² | - |
| 1777799995 | 2.78° C | 96% | 1061.3 hPa | 0 mm | - | 0 W/m² | - |
| 1777799394 | 2.78° C | 96% | 1061.4 hPa | 0 mm | - | 0 W/m² | - |
| 1777798791 | 2.22° C | 95% | 1061.3 hPa | 0 mm | - | 0 W/m² | - |
| 1777798191 | 2.78° C | 95% | 1061.2 hPa | 0 mm | - | 0 W/m² | - |
| 1777797586 | 2.78° C | 95% | 1061 hPa | 0 mm | - | 0 W/m² | - |
| 1777796985 | 2.22° C | 94% | 1060.9 hPa | 0 mm | - | 0 W/m² | - |
| 1777796384 | 2.78° C | 93% | 1060.8 hPa | 0 mm | - | 0 W/m² | - |
| 1777795783 | 3.33° C | 93% | 1060.8 hPa | 0 mm | - | 0 W/m² | - |
| 1777795182 | 3.33° C | 93% | 1060.6 hPa | 0 mm | - | 0 W/m² | - |
| 1777794581 | 3.33° C | 93% | 1060.6 hPa | 0 mm | - | 0 W/m² | - |
| 1777793978 | 3.33° C | 92% | 1060.4 hPa | 0 mm | - | 0 W/m² | - |
| 1777793373 | 3.89° C | 92% | 1060.3 hPa | 0 mm | - | 0 W/m² | - |
* Rain latest hour (hover to see other rain measurements)
** Current wind speed in m/s (hover to see current wind gust speed)